{"data":{"norad_id":59011,"epoch":"2026-05-25T03:29:27.627360Z","epoch_age_seconds":65792,"freshness":"FRESH","line1":"1 59011U 24036P   26145.14545865 -.00000585  00000+0 -76398-5 0  9994","line2":"2 59011  53.1604  83.3762 0001100  79.9923 280.1202 15.30195795127029","mean_motion":15.30195795,"eccentricity":0.00011,"inclination_deg":53.1604,"raan_deg":83.3762,"arg_perigee_deg":79.9923,"mean_anomaly_deg":280.1202,"bstar":-7.6398e-6,"rev_number":12702,"period_min":94.105604309284,"perigee_km":474.47375471139,"apogee_km":475.98149492885,"semimajor_km":6853.3646248201,"source":"CELESTRAK","updated_at":"2026-05-25T13:38:18.800017Z"}}